Wind_Speed
16 15 15 15 16 15 16 17 16 15 14 13 12 11 10 10 9 9 9 9 9 9 9 10 10 9 9 9 9 8 8 8 7 7 6 6 5 6 6 6 6 6 6 6 6 6 6 6 5
16 16 15 16 16 16 17 17 17 16 15 14 13 12 11 10 10 10 10 10 9 9 9 9 9 9 8 8 7 8 7 7 7 6 6 6 5 5 5 5 5 6 6 5 5 5 5 5 5
17 16 16 17 17 18 18 19 18 16 15 14 14 13 11 10 9 10 9 9 9 8 9 9 8 8 7 7 7 6 5 5 5 5 5 5 5 5 5 5 4 4 5 5 5 5 4 4 4
17 17 17 17 18 19 19 19 19 18 16 15 14 13 12 10 9 9 8 8 7 7 8 8 8 7 7 6 6 5 5 5 5 4 5 5 4 4 4 4 4 3 4 5 4 4 4 4 3
16 17 17 18 19 20 20 20 19 18 16 15 14 14 12 11 9 8 7 7 7 7 7 7 7 7 6 6 6 6 5 4 4 3 4 4 4 4 4 4 3 3 3 4 3 3 4 4 3
16 16 17 18 20 21 21 20 19 18 16 15 15 14 13 11 9 9 8 7 6 6 6 6 7 6 6 6 6 5 5 4 4 3 4 4 4 3 3 3 3 3 3 3 2 2 4 4 3
15 16 17 17 19 20 20 19 18 17 16 15 14 13 12 11 10 9 8 7 6 6 6 6 6 6 6 5 4 4 4 4 4 4 3 3 4 3 2 2 3 3 3 3 3 2 4 3 3
14 15 16 17 17 18 19 18 18 17 16 15 14 13 12 12 10 9 8 7 6 6 6 5 5 5 5 4 3 3 3 3 3 3 3 3 2 2 2 2 2 2 4 4 4 4 5 4 3
13 14 15 17 17 17 17 17 16 16 16 15 14 13 12 11 10 9 9 8 7 7 6 5 5 5 4 4 3 2 2 2 2 2 2 3 3 2 1 2 2 2 3 4 4 5 5 5 4
12 14 15 16 16 16 16 16 16 16 16 15 14 13 12 11 10 9 9 9 9 7 6 6 5 4 4 3 3 2 2 2 3 2 2 1 2 2 2 2 3 4 4 5 5 5 6 6 6
11 12 12 13 14 15 15 16 16 15 16 15 14 13 11 11 10 10 10 9 9 8 7 7 5 4 3 3 2 2 2 3 2 1 2 2 2 2 3 3 4 5 5 5 6 5 6 7 7
8 10 10 10 12 13 15 15 16 16 16 16 15 14 12 10 10 10 10 9 9 8 7 6 5 5 4 3 2 1 1 1 2 2 3 3 3 3 4 4 4 5 6 6 7 6 6 7 8
7 8 8 9 11 12 14 14 15 15 15 14 14 14 13 12 10 10 9 8 8 7 7 6 6 5 4 3 2 1 0 0 1 2 3 3 3 4 4 5 5 6 6 7 7 7 7 8 8
5 7 8 9 10 11 12 13 14 14 13 13 12 12 12 12 10 9 9 8 7 7 6 6 6 5 4 3 2 2 1 0 1 1 2 3 3 4 5 6 6 6 7 7 7 8 8 8 9
3 4 6 8 8 9 10 10 11 12 12 12 11 11 10 11 10 9 8 8 7 7 6 5 5 5 4 3 3 2 1 1 2 2 2 3 3 4 5 6 7 7 7 7 8 7 9 9 9
1 1 3 4 6 7 8 9 9 10 11 11 11 11 10 9 9 9 8 7 7 6 6 5 5 5 5 4 4 3 1 1 2 3 4 4 4 5 5 6 6 7 7 7 7 7 7 9 9
3 2 1 1 3 4 6 6 6 7 8 9 9 10 10 9 8 9 8 8 7 7 6 5 4 4 4 4 3 3 3 2 2 4 5 5 5 5 5 5 6 7 7 7 8 8 8 9 10
4 4 3 3 3 3 4 5 5 6 7 7 7 8 8 8 8 8 8 8 7 7 7 6 5 5 5 5 4 3 4 4 3 4 5 5 6 6 6 6 6 7 7 8 8 9 10 10 10
6 6 6 6 6 6 6 6 7 6 6 5 5 6 7 8 8 8 8 8 8 8 7 6 6 6 5 5 5 4 5 5 5 5 6 6 7 7 8 7 7 7 8 9 9 10 11 11 11
8 8 7 7 8 8 8 7 7 7 7 6 5 5 6 7 7 8 8 8 9 8 8 7 6 6 6 5 5 5 6 5 6 6 7 7 8 8 8 8 8 8 8 9 9 10 11 11 12
11 10 10 9 10 10 9 8 8 8 7 6 6 6 6 7 8 8 8 8 8 9 8 8 8 7 6 6 6 6 6 6 6 7 7 7 7 8 9 9 9 8 9 10 11 11 11 11 11
12 12 12 11 11 11 11 10 9 8 7 6 6 6 7 8 8 9 9 9 9 9 9 8 8 8 6 6 6 6 6 7 7 7 7 7 7 7 8 9 9 9 10 10 10 11 12 12 12
14 14 13 13 13 12 12 12 10 9 7 8 8 7 7 8 8 9 9 9 10 9 8 9 9 9 8 7 7 6 6 7 8 8 8 8 7 7 8 9 10 10 11 10 11 11 12 12 12
16 15 15 14 14 13 12 13 11 10 9 9 9 8 8 8 9 9 9 10 10 10 10 10 10 10 9 8 8 7 7 7 8 8 8 8 8 8 8 9 10 11 11 11 11 12 12 13 14
17 16 16 16 16 14 13 14 12 11 11 10 10 10 9 9 9 9 9 10 10 11 11 11 11 11 10 9 9 9 9 9 9 10 9 9 8 9 9 10 11 12 12 12 13 14 14 13 13
18 17 17 18 18 16 15 16 13 12 12 12 12 11 10 9 10 10 10 11 11 12 13 13 12 12 11 10 9 10 10 10 11 11 11 10 10 11 11 11 12 13 14 14 15 16 16 16 15
20 19 18 20 19 18 18 17 15 14 13 13 13 13 12 12 12 12 12 12 12 13 14 14 14 13 13 12 12 11 12 12 12 13 13 13 13 13 13 13 14 14 15 16 17 17 18 18 18
22 20 20 21 22 21 21 19 16 15 15 15 15 15 14 14 14 14 13 13 14 15 15 15 15 14 13 13 13 13 14 14 14 14 15 15 16 15 15 16 16 16 16 17 17 18 19 20 21
23 22 23 23 24 24 24 22 18 17 17 17 17 16 16 15 16 16 16 15 15 15 15 15 15 15 15 15 15 15 16 16 16 17 17 18 18 18 17 18 18 19 19 19 18 19 20 21 22
25 24 24 25 26 26 26 23 20 20 20 19 18 18 18 17 17 17 17 17 16 15 15 16 16 17 17 17 17 17 17 17 17 18 18 19 19 20 20 20 21 21 21 21 20 21 22 22 22
Wind_Direction
81 80 78 76 74 72 72 71 69 67 65 66 68 69 66 60 61 66 64 66 72 78 78 85 96 103 109 117 117 119 120 119 115 111 107 104 106 108 108 103 103 108 112 117 124 119 118 119 116
80 78 75 75 73 72 70 69 66 65 63 63 65 67 63 59 62 65 64 66 71 81 85 89 95 99 106 115 118 118 124 126 123 116 109 104 105 111 109 109 109 112 116 120 119 118 119 121 119
78 77 76 74 73 70 70 68 65 67 65 62 62 63 58 56 61 66 65 65 71 82 90 93 93 94 102 112 117 119 126 125 123 116 111 104 102 104 110 116 112 117 121 121 118 119 126 124 122
78 77 76 75 73 71 69 66 64 62 60 59 59 59 57 55 58 64 67 69 73 83 90 94 96 98 102 110 118 114 118 117 118 124 123 116 114 110 110 120 115 116 121 129 126 127 134 132 127
79 78 79 75 72 69 66 63 61 57 54 56 58 57 55 54 55 62 67 69 74 84 90 94 99 102 103 106 119 115 108 110 114 125 128 127 128 127 122 124 117 125 127 130 135 134 144 139 138
80 79 77 74 70 67 65 62 59 57 54 54 56 55 53 53 51 59 66 67 74 88 89 94 98 101 102 101 111 114 105 108 114 127 131 126 132 134 131 134 127 132 140 153 165 162 154 155 152
79 77 73 72 70 67 64 60 56 54 51 52 54 55 53 51 49 55 61 61 72 89 95 95 101 101 101 99 108 110 108 112 121 132 140 140 140 145 142 151 147 154 170 182 198 195 180 175 170
83 76 70 69 69 66 63 59 53 50 46 48 53 54 53 52 50 52 59 60 75 88 95 92 98 100 104 102 104 118 111 124 124 138 160 175 169 160 145 159 167 184 192 207 217 212 201 198 194
84 78 73 70 66 63 61 57 51 48 44 43 49 52 51 53 52 52 57 63 72 82 87 88 88 87 95 100 95 118 126 148 142 169 188 203 208 196 187 203 219 219 211 213 228 228 224 218 209
83 77 74 69 63 58 56 55 51 46 44 42 44 49 52 54 55 55 59 63 67 76 80 77 78 85 89 92 100 120 156 168 167 182 207 221 213 214 209 232 239 240 233 223 223 233 236 230 223
82 74 70 67 64 57 53 52 49 45 44 43 42 48 51 55 59 59 61 64 64 72 72 66 67 72 82 85 98 118 154 177 178 207 216 223 225 228 226 244 252 242 236 235 230 237 241 234 231
85 77 68 67 67 62 57 52 49 46 43 43 44 45 50 54 58 61 63 65 64 64 62 59 56 66 75 69 65 111 161 180 212 228 226 230 235 242 243 248 246 235 239 239 235 238 245 243 237
80 69 70 72 68 62 58 52 48 48 44 43 42 44 46 50 54 57 59 58 57 52 53 53 49 56 57 44 15 15 185 239 225 224 228 236 245 247 252 250 247 245 247 243 241 247 246 247 243
77 66 66 69 67 61 57 52 48 43 47 44 40 41 45 43 47 50 52 50 46 44 49 47 47 44 42 26 2 337 290 287 246 232 240 259 261 254 256 256 249 250 252 246 238 250 249 252 246
83 71 65 62 60 53 52 49 45 40 43 45 42 37 38 38 39 42 45 41 37 40 44 41 37 26 17 10 356 338 290 261 251 244 251 261 271 264 259 254 257 264 263 261 255 253 252 252 246
220 73 60 59 54 46 43 46 46 40 37 36 37 37 34 31 30 33 35 30 29 28 34 34 26 16 10 3 354 347 316 280 273 271 265 263 270 271 275 264 263 266 268 261 259 262 256 254 251
235 250 266 8 28 32 29 32 36 32 27 25 26 27 25 23 22 21 22 24 20 13 13 16 15 6 2 354 350 349 339 308 284 275 275 273 274 270 277 273 266 263 266 263 257 258 261 258 253
234 248 264 288 314 341 359 1 2 5 5 9 17 16 15 18 15 13 14 16 15 10 5 8 6 359 357 356 354 343 335 331 300 280 274 274 277 274 277 277 270 266 267 270 267 262 265 260 259
233 249 265 289 295 309 322 330 334 342 347 347 356 1 3 3 0 3 4 4 2 0 357 352 355 354 346 341 344 343 337 328 316 296 276 272 273 277 283 280 274 270 267 267 272 272 266 264 266
245 252 267 282 290 299 306 311 319 335 339 339 341 347 351 349 347 351 355 355 349 347 349 346 345 343 336 335 335 331 330 324 315 307 279 273 272 274 277 285 280 276 270 265 267 269 270 272 269
250 254 264 272 283 290 297 300 306 317 327 340 342 345 340 337 341 344 346 347 341 340 342 341 337 333 330 332 330 326 328 324 314 308 292 277 272 271 273 280 280 276 273 268 267 270 272 275 274
247 254 260 265 272 281 288 296 302 306 314 325 326 339 338 328 326 326 329 333 337 338 342 342 339 337 332 327 326 324 324 324 317 313 305 291 285 272 269 274 278 278 282 280 275 273 271 273 273
246 249 256 260 267 276 284 289 299 302 304 312 313 323 327 321 316 322 331 331 330 331 336 339 336 331 325 320 315 315 314 319 321 321 314 293 284 284 278 274 278 278 278 281 281 278 276 276 277
242 248 256 262 268 275 282 287 295 298 299 301 303 310 310 310 313 321 333 337 332 327 326 326 323 317 315 312 310 311 312 315 317 316 313 302 291 292 290 288 282 281 282 282 285 281 280 279 277
244 250 258 264 268 275 279 281 289 297 295 292 294 297 305 310 317 320 328 334 327 321 319 316 314 311 307 303 301 303 306 310 311 313 312 306 297 296 293 290 287 288 285 285 285 283 278 281 282
245 250 258 265 269 274 277 279 282 291 293 292 292 293 300 304 313 312 317 324 327 323 319 315 311 305 302 298 294 297 300 304 308 309 309 306 300 298 295 292 291 289 286 283 284 284 280 280 281
245 249 257 263 267 272 274 279 279 283 287 290 292 293 296 298 303 305 308 310 314 316 317 315 309 303 299 298 297 297 299 301 302 303 303 300 299 296 291 290 292 292 288 285 284 284 282 280 281
247 249 254 259 266 270 272 275 280 281 282 285 287 289 291 294 298 302 303 303 305 307 309 311 309 305 301 300 301 299 297 296 297 297 295 292 291 290 289 288 289 289 289 288 287 286 281 279 281
245 249 253 258 263 268 271 273 277 278 279 282 285 288 291 293 295 297 297 300 302 301 303 306 308 305 301 299 297 295 295 294 292 292 291 289 287 286 285 285 285 286 286 288 287 287 283 281 281
246 249 254 259 264 268 271 272 273 276 277 279 282 286 288 290 293 296 296 296 297 299 300 306 306 302 298 296 295 294 292 291 290 290 291 290 288 285 283 283 283 284 285 286 287 289 286 283 281
Height
5890 5890 5889 5889 5889 5888 5886 5886 5885 5885 5885 5885 5885 5885 5885 5885 5886 5888 5885 5883 5883 5883 5882 5881 5880 5882 5884 5885 5886 5887 5888 5889 5890 5890 5891 5891 5892 5893 5894 5894 5895 5896 5896 5897 5898 5898 5898 5899 5899
5892 5892 5893 5892 5890 5889 5889 5887 5887 5887 5887 5886 5886 5886 5886 5886 5886 5886 5885 5885 5885 5884 5884 5884 5884 5885 5885 5886 5887 5888 5889 5890 5890 5891 5892 5893 5893 5894 5895 5895 5896 5897 5897 5898 5898 5899 5899 5900 5900
5895 5895 5895 5894 5892 5891 5890 5889 5889 5889 5889 5888 5888 5888 5888 5888 5887 5887 5886 5886 5886 5886 5886 5886 5886 5886 5887 5887 5888 5889 5890 5890 5891 5892 5893 5894 5894 5895 5895 5896 5897 5898 5898 5899 5899 5900 5900 5900 5901
5897 5898 5897 5896 5894 5893 5892 5891 5890 5890 5890 5890 5890 5889 5889 5889 5888 5888 5888 5888 5888 5887 5887 5887 5887 5887 5888 5888 5889 5890 5890 5891 5892 5893 5893 5894 5895 5895 5896 5897 5898 5898 5899 5900 5900 5900 5901 5901 5902
5900 5900 5899 5897 5896 5895 5894 5893 5892 5892 5892 5892 5891 5890 5890 5890 5889 5889 5889 5889 5889 5889 5888 5888 5889 5889 5889 5889 5890 5890 5891 5892 5893 5893 5894 5894 5895 5896 5897 5898 5898 5899 5899 5900 5901 5901 5901 5901 5902
5902 5901 5901 5899 5898 5897 5896 5895 5895 5894 5894 5893 5893 5892 5891 5891 5891 5890 5890 5890 5890 5890 5890 5889 5889 5889 5890 5890 5890 5891 5891 5892 5893 5894 5894 5895 5896 5897 5897 5898 5899 5899 5900 5900 5901 5901 5901 5902 5902
5905 5903 5902 5901 5900 5899 5899 5898 5897 5897 5896 5895 5894 5893 5893 5892 5892 5891 5891 5891 5890 5890 5890 5890 5890 5891 5891 5891 5891 5891 5892 5893 5893 5894 5895 5895 5896 5897 5897 5898 5899 5899 5900 5900 5901 5901 5901 5902 5902
5906 5906 5904 5903 5902 5902 5901 5900 5899 5899 5898 5897 5896 5895 5894 5894 5893 5892 5891 5891 5891 5891 5891 5891 5891 5891 5892 5892 5891 5892 5892 5893 5894 5894 5895 5896 5896 5897 5898 5898 5898 5899 5899 5900 5900 5901 5901 5902 5902
5908 5908 5906 5905 5904 5904 5903 5902 5901 5900 5899 5898 5897 5896 5896 5895 5894 5893 5892 5892 5892 5892 5892 5892 5892 5892 5892 5892 5892 5892 5893 5893 5894 5894 5895 5896 5897 5897 5898 5898 5898 5899 5899 5899 5900 5900 5901 5901 5902
5909 5909 5908 5907 5907 5906 5905 5904 5903 5902 5901 5900 5898 5897 5896 5896 5895 5894 5894 5893 5893 5893 5893 5893 5893 5893 5893 5893 5893 5893 5893 5893 5894 5895 5895 5896 5896 5897 5897 5898 5898 5898 5898 5898 5899 5900 5900 5900 5901
5911 5910 5910 5909 5908 5907 5907 5906 5905 5904 5903 5901 5900 5898 5898 5898 5897 5896 5895 5895 5894 5894 5894 5894 5894 5894 5893 5894 5894 5893 5893 5893 5894 5895 5895 5896 5896 5896 5897 5897 5897 5896 5897 5898 5898 5899 5899 5899 5900
5912 5912 5911 5910 5909 5909 5908 5908 5907 5906 5905 5903 5901 5900 5899 5899 5899 5898 5897 5896 5896 5896 5895 5895 5894 5894 5894 5894 5894 5893 5893 5893 5893 5894 5895 5895 5895 5896 5896 5896 5896 5896 5896 5897 5897 5898 5898 5898 5899
5913 5913 5912 5912 5911 5910 5910 5910 5909 5907 5906 5905 5903 5902 5901 5901 5900 5899 5899 5898 5897 5897 5896 5896 5895 5895 5895 5894 5894 5894 5893 5893 5893 5893 5894 5894 5895 5895 5895 5895 5896 5895 5895 5896 5896 5897 5897 5897 5897
5914 5914 5914 5913 5913 5912 5911 5911 5911 5909 5908 5907 5905 5904 5903 5902 5901 5900 5900 5899 5898 5898 5897 5897 5896 5896 5895 5895 5894 5893 5893 5892 5892 5893 5893 5893 5894 5894 5894 5894 5894 5894 5894 5894 5895 5895 5895 5896 5896
5914 5915 5915 5914 5914 5913 5913 5913 5912 5911 5909 5908 5907 5906 5904 5903 5902 5901 5901 5900 5899 5898 5898 5897 5897 5896 5895 5895 5894 5893 5893 5892 5892 5892 5892 5893 5893 5892 5893 5893 5893 5893 5893 5893 5893 5894 5894 5894 5894
5915 5915 5915 5915 5914 5914 5915 5914 5913 5911 5910 5909 5908 5906 5906 5904 5903 5902 5901 5901 5900 5899 5898 5897 5897 5896 5895 5894 5894 5893 5892 5892 5892 5892 5892 5892 5892 5892 5892 5892 5892 5892 5892 5892 5892 5892 5892 5893 5893
5915 5915 5915 5916 5915 5915 5915 5914 5913 5912 5911 5910 5909 5907 5906 5905 5904 5903 5902 5901 5900 5899 5898 5897 5897 5896 5895 5894 5893 5893 5892 5891 5891 5891 5891 5891 5891 5890 5891 5891 5891 5890 5890 5890 5891 5891 5891 5891 5891
5915 5915 5915 5915 5915 5915 5914 5914 5913 5912 5911 5910 5909 5908 5907 5906 5905 5903 5902 5901 5900 5899 5898 5898 5897 5896 5895 5894 5893 5893 5892 5891 5890 5890 5890 5890 5890 5889 5889 5889 5889 5889 5889 5889 5889 5890 5890 5890 5890
5914 5914 5914 5914 5914 5914 5913 5913 5913 5911 5910 5909 5908 5907 5906 5905 5904 5903 5902 5901 5900 5899 5898 5897 5897 5896 5895 5894 5893 5892 5891 5890 5889 5889 5889 5889 5888 5888 5888 5887 5887 5887 5888 5888 5888 5888 5888 5888 5888
5913 5913 5914 5914 5913 5913 5912 5912 5912 5911 5910 5909 5908 5907 5906 5905 5904 5903 5902 5901 5900 5899 5898 5897 5896 5895 5894 5893 5893 5892 5891 5890 5889 5887 5887 5886 5886 5886 5886 5886 5886 5886 5886 5886 5886 5886 5886 5885 5885
5911 5912 5912 5912 5912 5911 5912 5912 5911 5910 5909 5909 5908 5906 5906 5905 5904 5902 5901 5900 5899 5898 5897 5896 5895 5894 5894 5893 5892 5891 5890 5889 5888 5886 5885 5884 5884 5884 5884 5884 5884 5884 5884 5884 5884 5884 5883 5883 5883
5909 5910 5910 5910 5910 5910 5910 5910 5910 5909 5908 5908 5907 5906 5905 5904 5903 5902 5900 5899 5898 5897 5896 5895 5894 5893 5892 5892 5891 5890 5889 5888 5886 5885 5884 5883 5882 5882 5882 5882 5882 5882 5882 5882 5881 5881 5881 5881 5881
5907 5908 5908 5907 5907 5908 5908 5908 5909 5908 5907 5907 5906 5906 5905 5903 5902 5900 5899 5898 5896 5895 5894 5894 5893 5892 5891 5890 5889 5888 5888 5886 5885 5884 5882 5881 5881 5880 5880 5880 5879 5879 5879 5879 5879 5879 5879 5878 5878
5904 5905 5905 5905 5905 5906 5906 5906 5907 5906 5906 5905 5905 5904 5903 5902 5901 5899 5897 5896 5895 5894 5893 5892 5891 5890 5889 5888 5888 5887 5886 5885 5884 5883 5882 5880 5879 5879 5879 5878 5877 5877 5876 5876 5876 5876 5875 5875 5875
5901 5903 5903 5902 5902 5903 5904 5903 5905 5905 5904 5904 5903 5903 5902 5900 5899 5897 5896 5895 5893 5892 5891 5890 5889 5888 5887 5886 5886 5885 5884 5884 5883 5882 5880 5879 5878 5877 5877 5876 5875 5874 5874 5873 5873 5872 5872 5872 5872
5898 5899 5900 5900 5900 5900 5901 5900 5903 5903 5902 5901 5901 5901 5899 5898 5897 5896 5894 5893 5891 5890 5889 5887 5886 5885 5884 5884 5883 5882 5882 5882 5881 5880 5878 5877 5876 5875 5874 5873 5872 5872 5871 5870 5869 5869 5868 5868 5868
5894 5895 5896 5896 5896 5896 5897 5898 5899 5900 5899 5899 5898 5898 5897 5896 5895 5894 5892 5891 5889 5888 5886 5884 5883 5882 5881 5881 5881 5880 5880 5879 5878 5877 5876 5875 5874 5873 5872 5871 5870 5868 5867 5866 5865 5865 5864 5864 5863
5890 5891 5892 5892 5891 5892 5893 5894 5895 5896 5896 5895 5895 5894 5893 5892 5891 5890 5889 5887 5886 5884 5883 5881 5880 5879 5879 5878 5878 5877 5876 5875 5874 5874 5873 5872 5871 5870 5869 5867 5866 5865 5863 5862 5861 5860 5859 5859 5859
5885 5886 5887 5887 5888 5888 5887 5891 5891 5892 5892 5891 5891 5891 5890 5889 5888 5886 5885 5884 5882 5881 5879 5878 5877 5876 5875 5875 5874 5873 5872 5871 5870 5870 5869 5867 5866 5866 5864 5863 5862 5861 5859 5858 5857 5855 5854 5854 5853
5879 5880 5882 5883 5883 5883 5883 5887 5886 5886 5886 5887 5887 5886 5885 5885 5883 5882 5881 5879 5878 5877 5875 5874 5873 5872 5871 5870 5870 5869 5868 5867 5866 5865 5864 5862 5861 5860 5859 5858 5857 5856 5855 5853 5852 5850 5849 5848 5847